Вернуться в каталог

STARLINK-31214

АктивенСвязьVLEO
NORAD 58871·PAYLOAD·🇺🇸 United States

Запущен Jan 29, 2024 с Cape Canaveral Space Force Station

Loading…

Ближайшие Пролёты (ближайшие 24 часа)

TLE

СвежийSource: CelesTrak SupGP

Эпоха: Sep 14, 2026, 22:33 UTC

1 58871C 24019U   26257.94006944  .00028559  00000+0  10347-2 0  2575
2 58871  42.9991 259.8859 0001329 263.3026 272.3787 15.27553709    19

Отслеживайте STARLINK-31214 в реальном времени с AllMySat

Download on the App Store